Location: Ferma
(41.9500°N, 44.5167°E)
Time: 11:53:21
(UTC+00:00)

Cosmos 2251 Rocket - Pass Details

Date: 24 October 2021
Orbit: 765 x 791 km, 74.0° (Epoch: 07 December)

Event Time Altitude Azimuth Distance (km) Brightness Sun altitude
Rises 14:50:17 0° 350° (N) 3,249 6.8 -8.7°
Reaches altitude 10° 14:53:02 10° 3° (N) 2,315 5.9 -9.2°
Maximum altitude 14:57:26 27° 60° (ENE) 1,461 4.5 -10.1°
Drops below altitude 10° 15:01:48 10° 117° (ESE) 2,299 5.5 -10.9°
Enters shadow 15:02:22 - 120° (ESE) 2,477 5.7 -11.0°
